owner,sensor,date,latitude,longitude,vertical_datum,direction_of_sea_water_velocity,sea_water_speed,upward_sea_water_velocity,qcFlag 
TABS,ioos:station:wmo:42046:1,2005-05-01T00:00:00Z,27.8903,-94.0367,2.0,236.4279243,36.25805566,-99999.0,'11111222,11111222,99999999' 
TABS,ioos:station:wmo:42046:1,2005-05-01T00:30:00Z,27.8903,-94.0367,2.0,243.0873479,33.2062193,-99999.0,'11111222,11111222,99999999' 
TABS,ioos:station:wmo:42046:1,2005-05-01T01:00:00Z,27.8903,-94.0367,2.0,247.8273802,33.28101561,-99999.0,'11111222,11111222,99999999' 
TABS,ioos:station:wmo:42046:1,2005-05-01T01:30:00Z,27.8903,-94.0367,2.0,248.8763363,34.04776792,-99999.0,'11111222,11111222,99999999' 
TABS,ioos:station:wmo:42046:1,2005-05-01T02:00:00Z,27.8903,-94.0367,2.0,257.5716699,33.26959122,-99999.0,'11111222,11111222,99999999' 
TABS,ioos:station:wmo:42046:1,2005-05-01T02:30:00Z,27.8903,-94.0367,2.0,260.8535933,35.73430844,-99999.0,'11111222,11111222,99999999' 
TABS,ioos:station:wmo:42046:1,2005-05-01T03:00:00Z,27.8903,-94.0367,2.0,270.7246019,34.8127807,-99999.0,'11111222,11111222,99999999' 
TABS,ioos:station:wmo:42046:1,2005-05-01T03:30:00Z,27.8903,-94.0367,2.0,272.8231638,33.91114566,-99999.0,'11111222,11111222,99999999' 
TABS,ioos:station:wmo:42046:1,2005-05-01T04:00:00Z,27.8903,-94.0367,2.0,276.0854867,37.45101467,-99999.0,'11111222,11111222,99999999' 
TABS,ioos:station:wmo:42046:1,2005-05-01T04:30:00Z,27.8903,-94.0367,2.0,287.3845016,32.93433619,-99999.0,'11111222,11111222,99999999' 
TABS,ioos:station:wmo:42046:1,2005-05-01T05:00:00Z,27.8903,-94.0367,2.0,294.8328221,34.90756365,-99999.0,'11111222,11111222,99999999' 
TABS,ioos:station:wmo:42046:1,2005-05-01T05:30:00Z,27.8903,-94.0367,2.0,302.322676,32.76715581,-99999.0,'11111222,11111222,99999999' 
TABS,ioos:station:wmo:42046:1,2005-05-01T06:00:00Z,27.8903,-94.0367,2.0,305.5813059,35.38695381,-99999.0,'11111222,11111222,99999999' 
TABS,ioos:station:wmo:42046:1,2005-05-01T06:30:00Z,27.8903,-94.0367,2.0,316.2145851,33.70120621,-99999.0,'11111222,11111222,99999999' 
TABS,ioos:station:wmo:42046:1,2005-05-01T07:00:00Z,27.8903,-94.0367,2.0,314.4068362,35.49866476,-99999.0,'11111222,11111222,99999999' 
TABS,ioos:station:wmo:42046:1,2005-05-01T07:30:00Z,27.8903,-94.0367,2.0,315.2016015,34.21710829,-99999.0,'11111222,11111222,99999999' 
TABS,ioos:station:wmo:42046:1,2005-05-01T08:00:00Z,27.8903,-94.0367,2.0,320.8006888,32.3247181,-99999.0,'11111222,11111222,99999999' 
TABS,ioos:station:wmo:42046:1,2005-05-01T08:30:00Z,27.8903,-94.0367,2.0,323.8484805,33.51263195,-99999.0,'11111222,11111222,99999999' 
TABS,ioos:station:wmo:42046:1,2005-05-01T09:00:00Z,27.8903,-94.0367,2.0,323.7908383,32.62016707,-99999.0,'11111222,11111222,99999999' 
TABS,ioos:station:wmo:42046:1,2005-05-01T09:30:00Z,27.8903,-94.0367,2.0,332.5965931,29.02727166,-99999.0,'11111222,11111222,99999999' 
TABS,ioos:station:wmo:42046:1,2005-05-01T10:00:00Z,27.8903,-94.0367,2.0,336.0262469,30.27153118,-99999.0,'11111222,11111222,99999999' 
TABS,ioos:station:wmo:42046:1,2005-05-01T10:30:00Z,27.8903,-94.0367,2.0,349.5453998,29.0421504,-99999.0,'11111222,11111222,99999999' 
TABS,ioos:station:wmo:42046:1,2005-05-01T11:00:00Z,27.8903,-94.0367,2.0,355.2365799,22.8790297,-99999.0,'11111222,11111222,99999999' 
TABS,ioos:station:wmo:42046:1,2005-05-01T11:30:00Z,27.8903,-94.0367,2.0,0.636045662,25.23155366,-99999.0,'11111222,11111222,99999999' 
TABS,ioos:station:wmo:42046:1,2005-05-01T12:00:00Z,27.8903,-94.0367,2.0,10.60795261,23.68476303,-99999.0,'11111222,11111222,99999999' 
TABS,ioos:station:wmo:42046:1,2005-05-01T12:30:00Z,27.8903,-94.0367,2.0,11.38471367,22.59455908,-99999.0,'11111222,11111222,99999999' 
TABS,ioos:station:wmo:42046:1,2005-05-01T13:00:00Z,27.8903,-94.0367,2.0,29.58371164,21.14676571,-99999.0,'11111222,11111222,99999999' 
TABS,ioos:station:wmo:42046:1,2005-05-01T13:30:00Z,27.8903,-94.0367,2.0,30.35669624,18.12498828,-99999.0,'11111222,11111222,99999999' 
TABS,ioos:station:wmo:42046:1,2005-05-01T14:00:00Z,27.8903,-94.0367,2.0,48.46164727,16.51278596,-99999.0,'11111222,11111222,99999999' 
TABS,ioos:station:wmo:42046:1,2005-05-01T14:30:00Z,27.8903,-94.0367,2.0,62.26694143,14.69849312,-99999.0,'11111222,11111222,99999999' 
TABS,ioos:station:wmo:42046:1,2005-05-01T15:00:00Z,27.8903,-94.0367,2.0,70.90655265,14.30708915,-99999.0,'11111222,11111222,99999999' 
TABS,ioos:station:wmo:42046:1,2005-05-01T15:30:00Z,27.8903,-94.0367,2.0,94.20743707,16.08334542,-99999.0,'11111222,11111222,99999999' 
TABS,ioos:station:wmo:42046:1,2005-05-01T16:00:00Z,27.8903,-94.0367,2.0,111.697161,16.33750287,-99999.0,'11111222,11111222,99999999' 
TABS,ioos:station:wmo:42046:1,2005-05-01T16:30:00Z,27.8903,-94.0367,2.0,113.3140429,17.58590629,-99999.0,'11111222,11111222,99999999' 
TABS,ioos:station:wmo:42046:1,2005-05-01T17:00:00Z,27.8903,-94.0367,2.0,144.9561771,17.25876589,-99999.0,'11111222,11111222,99999999' 
TABS,ioos:station:wmo:42046:1,2005-05-01T17:30:00Z,27.8903,-94.0367,2.0,146.824872,20.97960915,-99999.0,'11111222,11111222,99999999' 
TABS,ioos:station:wmo:42046:1,2005-05-01T18:00:00Z,27.8903,-94.0367,2.0,167.9997203,24.09657652,-99999.0,'11111222,11111222,99999999' 
TABS,ioos:station:wmo:42046:1,2005-05-01T18:30:00Z,27.8903,-94.0367,2.0,173.6551304,28.23292404,-99999.0,'11111222,11111222,99999999' 
TABS,ioos:station:wmo:42046:1,2005-05-01T19:00:00Z,27.8903,-94.0367,2.0,181.012096,33.39521223,-99999.0,'11111222,11111222,99999999' 
TABS,ioos:station:wmo:42046:1,2005-05-01T19:30:00Z,27.8903,-94.0367,2.0,184.0274085,38.01388299,-99999.0,'11111222,11111222,99999999' 
TABS,ioos:station:wmo:42046:1,2005-05-01T20:00:00Z,27.8903,-94.0367,2.0,187.0695269,37.293541,-99999.0,'11111222,11111222,99999999' 
TABS,ioos:station:wmo:42046:1,2005-05-01T20:30:00Z,27.8903,-94.0367,2.0,195.4480652,36.41565597,-99999.0,'11111222,11111222,99999999' 
TABS,ioos:station:wmo:42046:1,2005-05-01T21:00:00Z,27.8903,-94.0367,2.0,202.0791421,33.67995992,-99999.0,'11111222,11111222,99999999' 
TABS,ioos:station:wmo:42046:1,2005-05-01T21:30:00Z,27.8903,-94.0367,2.0,203.5867649,33.31320759,-99999.0,'11111222,11111222,99999999' 
TABS,ioos:station:wmo:42046:1,2005-05-01T22:00:00Z,27.8903,-94.0367,2.0,211.0700949,29.49094776,-99999.0,'11111222,11111222,99999999' 
TABS,ioos:station:wmo:42046:1,2005-05-01T22:30:00Z,27.8903,-94.0367,2.0,218.9946638,26.69836137,-99999.0,'11111222,11111222,99999999' 
TABS,ioos:station:wmo:42046:1,2005-05-01T23:00:00Z,27.8903,-94.0367,2.0,228.6512502,26.53502026,-99999.0,'11111222,11111222,99999999' 
TABS,ioos:station:wmo:42046:1,2005-05-01T23:30:00Z,27.8903,-94.0367,2.0,232.0296973,26.98097293,-99999.0,'11111222,11111222,99999999' 
TABS,ioos:station:wmo:42046:1,2005-05-02T00:00:00Z,27.8903,-94.0367,2.0,235.593746,25.30739813,-99999.0,'11111222,11111222,99999999' 
TABS,ioos:station:wmo:42046:1,2005-05-02T00:30:00Z,27.8903,-94.0367,2.0,232.8720034,24.00624294,-99999.0,'11111222,11111222,99999999' 
TABS,ioos:station:wmo:42046:1,2005-05-02T01:00:00Z,27.8903,-94.0367,2.0,243.3984717,21.28289924,-99999.0,'11111222,11111222,99999999' 
TABS,ioos:station:wmo:42046:1,2005-05-02T01:30:00Z,27.8903,-94.0367,2.0,248.3456132,23.8210768,-99999.0,'11111222,11111222,99999999' 
TABS,ioos:station:wmo:42046:1,2005-05-02T02:00:00Z,27.8903,-94.0367,2.0,252.5448882,20.70329925,-99999.0,'11111222,11111222,99999999' 
TABS,ioos:station:wmo:42046:1,2005-05-02T02:30:00Z,27.8903,-94.0367,2.0,268.1726241,24.15227733,-99999.0,'11111222,11111222,99999999' 
TABS,ioos:station:wmo:42046:1,2005-05-02T03:00:00Z,27.8903,-94.0367,2.0,261.9727035,21.19768148,-99999.0,'11111222,11111222,99999999' 
TABS,ioos:station:wmo:42046:1,2005-05-02T03:30:00Z,27.8903,-94.0367,2.0,274.3652733,22.07402319,-99999.0,'11111222,11111222,99999999' 
TABS,ioos:station:wmo:42046:1,2005-05-02T04:00:00Z,27.8903,-94.0367,2.0,278.0762984,20.92754166,-99999.0,'11111222,11111222,99999999' 
TABS,ioos:station:wmo:42046:1,2005-05-02T04:30:00Z,27.8903,-94.0367,2.0,281.4183577,22.88287132,-99999.0,'11111222,11111222,99999999' 
TABS,ioos:station:wmo:42046:1,2005-05-02T05:00:00Z,27.8903,-94.0367,2.0,280.1598866,22.56378736,-99999.0,'11111222,11111222,99999999' 
TABS,ioos:station:wmo:42046:1,2005-05-02T05:30:00Z,27.8903,-94.0367,2.0,289.6466762,20.49297685,-99999.0,'11111222,11111222,99999999' 
TABS,ioos:station:wmo:42046:1,2005-05-02T06:00:00Z,27.8903,-94.0367,2.0,289.2050117,18.36184087,-99999.0,'11111222,11111222,99999999' 
TABS,ioos:station:wmo:42046:1,2005-05-02T06:30:00Z,27.8903,-94.0367,2.0,295.6525941,16.56242132,-99999.0,'11111222,11111222,99999999' 
TABS,ioos:station:wmo:42046:1,2005-05-02T07:00:00Z,27.8903,-94.0367,2.0,292.3907521,18.24553096,-99999.0,'11111222,11111222,99999999' 
TABS,ioos:station:wmo:42046:1,2005-05-02T07:30:00Z,27.8903,-94.0367,2.0,289.9178629,21.6340588,-99999.0,'11111222,11111222,99999999' 
TABS,ioos:station:wmo:42046:1,2005-05-02T08:00:00Z,27.8903,-94.0367,2.0,296.4875803,19.75344274,-99999.0,'11111222,11111222,99999999' 
TABS,ioos:station:wmo:42046:1,2005-05-02T08:30:00Z,27.8903,-94.0367,2.0,301.0619162,18.08283717,-99999.0,'11111222,11111222,99999999' 
TABS,ioos:station:wmo:42046:1,2005-05-02T09:00:00Z,27.8903,-94.0367,2.0,299.0582373,16.96545019,-99999.0,'11111222,11111222,99999999' 
TABS,ioos:station:wmo:42046:1,2005-05-02T09:30:00Z,27.8903,-94.0367,2.0,313.4881644,15.80934217,-99999.0,'11111222,11111222,99999999' 
TABS,ioos:station:wmo:42046:1,2005-05-02T10:00:00Z,27.8903,-94.0367,2.0,316.7011234,14.77089706,-99999.0,'11111222,11111222,99999999' 
TABS,ioos:station:wmo:42046:1,2005-05-02T10:30:00Z,27.8903,-94.0367,2.0,315.9273488,10.92622991,-99999.0,'11111222,11111222,99999999' 
TABS,ioos:station:wmo:42046:1,2005-05-02T11:00:00Z,27.8903,-94.0367,2.0,324.534423,10.20306327,-99999.0,'11111222,11111222,99999999' 
TABS,ioos:station:wmo:42046:1,2005-05-02T11:30:00Z,27.8903,-94.0367,2.0,357.1527736,7.649444424,-99999.0,'11133222,11111222,99999999' 
TABS,ioos:station:wmo:42046:1,2005-05-02T12:00:00Z,27.8903,-94.0367,2.0,10.63568448,6.664487977,-99999.0,'11133222,11111222,99999999' 
TABS,ioos:station:wmo:42046:1,2005-05-02T12:30:00Z,27.8903,-94.0367,2.0,48.93149267,5.053563099,-99999.0,'11133222,11111222,99999999' 
TABS,ioos:station:wmo:42046:1,2005-05-02T13:00:00Z,27.8903,-94.0367,2.0,98.44750749,8.168622895,-99999.0,'11133222,11111222,99999999' 
TABS,ioos:station:wmo:42046:1,2005-05-02T13:30:00Z,27.8903,-94.0367,2.0,119.0186216,9.297150101,-99999.0,'11133222,11111222,99999999' 
TABS,ioos:station:wmo:42046:1,2005-05-02T14:00:00Z,27.8903,-94.0367,2.0,120.5563957,11.82169616,-99999.0,'11111222,11111222,99999999' 
TABS,ioos:station:wmo:42046:1,2005-05-02T14:30:00Z,27.8903,-94.0367,2.0,130.5911909,12.41818425,-99999.0,'11111222,11111222,99999999' 
TABS,ioos:station:wmo:42046:1,2005-05-02T15:00:00Z,27.8903,-94.0367,2.0,136.4232412,17.3648294,-99999.0,'11111222,11111222,99999999' 
TABS,ioos:station:wmo:42046:1,2005-05-02T15:30:00Z,27.8903,-94.0367,2.0,149.4496704,18.53261989,-99999.0,'11111222,11111222,99999999' 
TABS,ioos:station:wmo:42046:1,2005-05-02T16:00:00Z,27.8903,-94.0367,2.0,150.9425205,20.36300813,-99999.0,'11111222,11111222,99999999' 
TABS,ioos:station:wmo:42046:1,2005-05-02T16:30:00Z,27.8903,-94.0367,2.0,156.2740598,22.11950497,-99999.0,'11111222,11111222,99999999' 
TABS,ioos:station:wmo:42046:1,2005-05-02T17:00:00Z,27.8903,-94.0367,2.0,161.0659699,26.8740544,-99999.0,'11111222,11111222,99999999' 
TABS,ioos:station:wmo:42046:1,2005-05-02T17:30:00Z,27.8903,-94.0367,2.0,169.3370816,27.77966163,-99999.0,'11111222,11111222,99999999' 
TABS,ioos:station:wmo:42046:1,2005-05-02T18:00:00Z,27.8903,-94.0367,2.0,172.3008603,26.49886979,-99999.0,'11111222,11111222,99999999' 
TABS,ioos:station:wmo:42046:1,2005-05-02T18:30:00Z,27.8903,-94.0367,2.0,175.8924706,28.20243429,-99999.0,'11111222,11111222,99999999' 
TABS,ioos:station:wmo:42046:1,2005-05-02T19:00:00Z,27.8903,-94.0367,2.0,183.1641325,24.63756481,-99999.0,'11111222,11111222,99999999' 
TABS,ioos:station:wmo:42046:1,2005-05-02T19:30:00Z,27.8903,-94.0367,2.0,185.9441796,24.13980323,-99999.0,'11111222,11111222,99999999' 
TABS,ioos:station:wmo:42046:1,2005-05-02T20:00:00Z,27.8903,-94.0367,2.0,193.8355179,22.87367483,-99999.0,'11111222,11111222,99999999' 
TABS,ioos:station:wmo:42046:1,2005-05-02T20:30:00Z,27.8903,-94.0367,2.0,195.5903809,23.51520572,-99999.0,'11111222,11111222,99999999' 
TABS,ioos:station:wmo:42046:1,2005-05-02T21:00:00Z,27.8903,-94.0367,2.0,198.5004956,22.02844071,-99999.0,'11111222,11111222,99999999' 
TABS,ioos:station:wmo:42046:1,2005-05-02T21:30:00Z,27.8903,-94.0367,2.0,204.7808841,19.9688207,-99999.0,'11111222,11111222,99999999' 
TABS,ioos:station:wmo:42046:1,2005-05-02T22:00:00Z,27.8903,-94.0367,2.0,216.5248956,18.61633691,-99999.0,'11111222,11111222,99999999' 
TABS,ioos:station:wmo:42046:1,2005-05-02T22:30:00Z,27.8903,-94.0367,2.0,214.8781691,18.18698436,-99999.0,'11111222,11111222,99999999' 
TABS,ioos:station:wmo:42046:1,2005-05-02T23:00:00Z,27.8903,-94.0367,2.0,224.2995195,16.78089688,-99999.0,'11111222,11111222,99999999' 
TABS,ioos:station:wmo:42046:1,2005-05-02T23:30:00Z,27.8903,-94.0367,2.0,231.7367748,17.35913016,-99999.0,'11111222,11111222,99999999' 
TABS,ioos:station:wmo:42046:1,2005-05-03T00:00:00Z,27.8903,-94.0367,2.0,238.7609154,16.79504987,-99999.0,'11111222,11111222,99999999' 
TABS,ioos:station:wmo:42046:1,2005-05-03T00:30:00Z,27.8903,-94.0367,2.0,235.194734,18.81621907,-99999.0,'11111222,11111222,99999999' 
TABS,ioos:station:wmo:42046:1,2005-05-03T01:00:00Z,27.8903,-94.0367,2.0,235.0076407,17.21124342,-99999.0,'11111222,11111222,99999999' 
TABS,ioos:station:wmo:42046:1,2005-05-03T01:30:00Z,27.8903,-94.0367,2.0,243.1846651,16.40395074,-99999.0,'11111222,11111222,99999999' 
TABS,ioos:station:wmo:42046:1,2005-05-03T02:00:00Z,27.8903,-94.0367,2.0,241.4846903,20.10942316,-99999.0,'11111222,11111222,99999999' 
TABS,ioos:station:wmo:42046:1,2005-05-03T02:30:00Z,27.8903,-94.0367,2.0,246.0536579,17.6162567,-99999.0,'11111222,11111222,99999999' 
TABS,ioos:station:wmo:42046:1,2005-05-03T03:00:00Z,27.8903,-94.0367,2.0,252.6595978,19.52746783,-99999.0,'11111222,11111222,99999999' 
TABS,ioos:station:wmo:42046:1,2005-05-03T03:30:00Z,27.8903,-94.0367,2.0,255.9136326,19.55808017,-99999.0,'11111222,11111222,99999999' 
TABS,ioos:station:wmo:42046:1,2005-05-03T04:00:00Z,27.8903,-94.0367,2.0,261.3354639,23.36665145,-99999.0,'11111222,11111222,99999999' 
TABS,ioos:station:wmo:42046:1,2005-05-03T04:30:00Z,27.8903,-94.0367,2.0,265.2972164,23.29842269,-99999.0,'11111222,11111222,99999999' 
TABS,ioos:station:wmo:42046:1,2005-05-03T05:00:00Z,27.8903,-94.0367,2.0,273.0068836,23.83280302,-99999.0,'11111222,11111222,99999999' 
TABS,ioos:station:wmo:42046:1,2005-05-03T05:30:00Z,27.8903,-94.0367,2.0,275.014464,21.28143792,-99999.0,'11111222,11111222,99999999' 
TABS,ioos:station:wmo:42046:1,2005-05-03T06:00:00Z,27.8903,-94.0367,2.0,279.6169112,23.82478751,-99999.0,'11111222,11111222,99999999' 
TABS,ioos:station:wmo:42046:1,2005-05-03T06:30:00Z,27.8903,-94.0367,2.0,280.1518645,24.05659993,-99999.0,'11111222,11111222,99999999' 
TABS,ioos:station:wmo:42046:1,2005-05-03T07:00:00Z,27.8903,-94.0367,2.0,283.1086353,23.81041999,-99999.0,'11111222,11111222,99999999' 
TABS,ioos:station:wmo:42046:1,2005-05-03T07:30:00Z,27.8903,-94.0367,2.0,290.2602691,24.22901154,-99999.0,'11111222,11111222,99999999' 
TABS,ioos:station:wmo:42046:1,2005-05-03T08:00:00Z,27.8903,-94.0367,2.0,290.2668557,21.0746981,-99999.0,'11111222,11111222,99999999' 
TABS,ioos:station:wmo:42046:1,2005-05-03T08:30:00Z,27.8903,-94.0367,2.0,294.7310263,22.49295445,-99999.0,'11111222,11111222,99999999' 
TABS,ioos:station:wmo:42046:1,2005-05-03T09:00:00Z,27.8903,-94.0367,2.0,298.4048373,20.20210385,-99999.0,'11111222,11111222,99999999' 
TABS,ioos:station:wmo:42046:1,2005-05-03T09:30:00Z,27.8903,-94.0367,2.0,302.5345589,19.52387257,-99999.0,'11111222,11111222,99999999' 
TABS,ioos:station:wmo:42046:1,2005-05-03T10:00:00Z,27.8903,-94.0367,2.0,309.0365978,15.92538226,-99999.0,'11111222,11111222,99999999' 
TABS,ioos:station:wmo:42046:1,2005-05-03T10:30:00Z,27.8903,-94.0367,2.0,315.4518482,16.15082041,-99999.0,'11111222,11111222,99999999' 
TABS,ioos:station:wmo:42046:1,2005-05-03T11:00:00Z,27.8903,-94.0367,2.0,321.8953837,16.60985852,-99999.0,'11111222,11111222,99999999' 
TABS,ioos:station:wmo:42046:1,2005-05-03T11:30:00Z,27.8903,-94.0367,2.0,322.2063558,12.4016128,-99999.0,'11111222,11111222,99999999' 
TABS,ioos:station:wmo:42046:1,2005-05-03T12:00:00Z,27.8903,-94.0367,2.0,327.0308837,9.26145237,-99999.0,'11133222,11111222,99999999' 
TABS,ioos:station:wmo:42046:1,2005-05-03T12:30:00Z,27.8903,-94.0367,2.0,341.5965626,5.796455814,-99999.0,'11133222,11111222,99999999' 
TABS,ioos:station:wmo:42046:1,2005-05-03T13:00:00Z,27.8903,-94.0367,2.0,307.1635522,5.860076791,-99999.0,'11133222,11111222,99999999' 
TABS,ioos:station:wmo:42046:1,2005-05-03T13:30:00Z,27.8903,-94.0367,2.0,332.763617,4.959939516,-99999.0,'11133222,11111222,99999999' 
TABS,ioos:station:wmo:42046:1,2005-05-03T14:00:00Z,27.8903,-94.0367,2.0,277.4911325,2.914875641,-99999.0,'11133222,11111222,99999999' 
TABS,ioos:station:wmo:42046:1,2005-05-03T14:30:00Z,27.8903,-94.0367,2.0,82.87500031,0.161245155,-99999.0,'11133222,11111222,99999999' 
TABS,ioos:station:wmo:42046:1,2005-05-03T15:00:00Z,27.8903,-94.0367,2.0,272.9429345,2.142825238,-99999.0,'11133222,11111222,99999999' 
TABS,ioos:station:wmo:42046:1,2005-05-03T15:30:00Z,27.8903,-94.0367,2.0,225.6833708,2.962988356,-99999.0,'11133222,11111222,99999999' 
TABS,ioos:station:wmo:42046:1,2005-05-03T16:00:00Z,27.8903,-94.0367,2.0,237.2153749,3.508917212,-99999.0,'11133222,11111222,99999999' 
TABS,ioos:station:wmo:42046:1,2005-05-03T16:30:00Z,27.8903,-94.0367,2.0,200.2640004,5.745624422,-99999.0,'11133222,11111222,99999999' 
TABS,ioos:station:wmo:42046:1,2005-05-03T17:00:00Z,27.8903,-94.0367,2.0,185.4308172,8.769367138,-99999.0,'11133222,11111222,99999999' 
TABS,ioos:station:wmo:42046:1,2005-05-03T17:30:00Z,27.8903,-94.0367,2.0,200.7736174,11.39052677,-99999.0,'11111222,11111222,99999999' 
TABS,ioos:station:wmo:42046:1,2005-05-03T18:00:00Z,27.8903,-94.0367,2.0,194.3269728,10.50677876,-99999.0,'11111222,11111222,99999999' 
TABS,ioos:station:wmo:42046:1,2005-05-03T18:30:00Z,27.8903,-94.0367,2.0,202.878791,12.2432022,-99999.0,'11111222,11111222,99999999' 
TABS,ioos:station:wmo:42046:1,2005-05-03T19:00:00Z,27.8903,-94.0367,2.0,206.9799572,13.57776123,-99999.0,'11111222,11111222,99999999' 
TABS,ioos:station:wmo:42046:1,2005-05-03T19:30:00Z,27.8903,-94.0367,2.0,201.8734819,14.70893946,-99999.0,'11111222,11111222,99999999' 
TABS,ioos:station:wmo:42046:1,2005-05-03T20:00:00Z,27.8903,-94.0367,2.0,198.5830406,15.87784935,-99999.0,'11111222,11111222,99999999' 
TABS,ioos:station:wmo:42046:1,2005-05-03T20:30:00Z,27.8903,-94.0367,2.0,198.0184131,17.84520384,-99999.0,'11111222,11111222,99999999' 
TABS,ioos:station:wmo:42046:1,2005-05-03T21:00:00Z,27.8903,-94.0367,2.0,209.9294524,16.91594514,-99999.0,'11111222,11111222,99999999' 
TABS,ioos:station:wmo:42046:1,2005-05-03T21:30:00Z,27.8903,-94.0367,2.0,217.1415593,14.32616138,-99999.0,'11111222,11111222,99999999' 
TABS,ioos:station:wmo:42046:1,2005-05-03T22:00:00Z,27.8903,-94.0367,2.0,225.8584412,16.51279807,-99999.0,'11111222,11111222,99999999' 
TABS,ioos:station:wmo:42046:1,2005-05-03T22:30:00Z,27.8903,-94.0367,2.0,228.9711464,16.43727776,-99999.0,'11111222,11111222,99999999' 
TABS,ioos:station:wmo:42046:1,2005-05-03T23:00:00Z,27.8903,-94.0367,2.0,238.3770504,14.91450301,-99999.0,'11111222,11111222,99999999' 
TABS,ioos:station:wmo:42046:1,2005-05-03T23:30:00Z,27.8903,-94.0367,2.0,239.2651041,14.14703149,-99999.0,'11111222,11111222,99999999' 
TABS,ioos:station:wmo:42046:1,2005-05-04T00:00:00Z,27.8903,-94.0367,2.0,229.5593108,15.83273192,-99999.0,'11111222,11111222,99999999' 
TABS,ioos:station:wmo:42046:1,2005-05-04T00:30:00Z,27.8903,-94.0367,2.0,237.6667146,15.57480337,-99999.0,'11111222,11111222,99999999' 
TABS,ioos:station:wmo:42046:1,2005-05-04T01:00:00Z,27.8903,-94.0367,2.0,244.6347422,16.01375971,-99999.0,'11111222,11111222,99999999' 
TABS,ioos:station:wmo:42046:1,2005-05-04T01:30:00Z,27.8903,-94.0367,2.0,244.4495642,18.1776126,-99999.0,'11111222,11111222,99999999' 
TABS,ioos:station:wmo:42046:1,2005-05-04T02:00:00Z,27.8903,-94.0367,2.0,241.9898611,17.73765768,-99999.0,'11111222,11111222,99999999' 
TABS,ioos:station:wmo:42046:1,2005-05-04T02:30:00Z,27.8903,-94.0367,2.0,252.5694558,21.09879854,-99999.0,'11111222,11111222,99999999' 
TABS,ioos:station:wmo:42046:1,2005-05-04T03:00:00Z,27.8903,-94.0367,2.0,243.5235386,20.16488532,-99999.0,'11111222,11111222,99999999' 
TABS,ioos:station:wmo:42046:1,2005-05-04T03:30:00Z,27.8903,-94.0367,2.0,249.1163589,19.46894193,-99999.0,'11111222,11111222,99999999' 
TABS,ioos:station:wmo:42046:1,2005-05-04T04:00:00Z,27.8903,-94.0367,2.0,245.6536545,20.32768555,-99999.0,'11111222,11111222,99999999' 
TABS,ioos:station:wmo:42046:1,2005-05-04T04:30:00Z,27.8903,-94.0367,2.0,253.8095348,20.26361518,-99999.0,'11111222,11111222,99999999' 
TABS,ioos:station:wmo:42046:1,2005-05-04T05:00:00Z,27.8903,-94.0367,2.0,246.0399754,20.56177522,-99999.0,'11111222,11111222,99999999' 
TABS,ioos:station:wmo:42046:1,2005-05-04T05:30:00Z,27.8903,-94.0367,2.0,249.4133521,19.96488167,-99999.0,'11111222,11111222,99999999' 
TABS,ioos:station:wmo:42046:1,2005-05-04T06:00:00Z,27.8903,-94.0367,2.0,252.3467841,18.30180592,-99999.0,'11111222,11111222,99999999' 
TABS,ioos:station:wmo:42046:1,2005-05-04T06:30:00Z,27.8903,-94.0367,2.0,247.3073183,19.46693864,-99999.0,'11111222,11111222,99999999' 
TABS,ioos:station:wmo:42046:1,2005-05-04T07:00:00Z,27.8903,-94.0367,2.0,240.7239304,16.3594896,-99999.0,'11111222,11111222,99999999' 
TABS,ioos:station:wmo:42046:1,2005-05-04T07:30:00Z,27.8903,-94.0367,2.0,252.1646058,14.49667548,-99999.0,'11111222,11111222,99999999' 
TABS,ioos:station:wmo:42046:1,2005-05-04T08:00:00Z,27.8903,-94.0367,2.0,277.3805702,12.53383421,-99999.0,'11111222,11111222,99999999' 
TABS,ioos:station:wmo:42046:1,2005-05-04T08:30:00Z,27.8903,-94.0367,2.0,278.9366352,11.45909246,-99999.0,'11111222,11111222,99999999' 
TABS,ioos:station:wmo:42046:1,2005-05-04T09:00:00Z,27.8903,-94.0367,2.0,297.5852863,13.06517891,-99999.0,'11111222,11111222,99999999' 
TABS,ioos:station:wmo:42046:1,2005-05-04T09:30:00Z,27.8903,-94.0367,2.0,306.1215347,13.46914994,-99999.0,'11111222,11111222,99999999' 
TABS,ioos:station:wmo:42046:1,2005-05-04T10:00:00Z,27.8903,-94.0367,2.0,329.4188184,10.02431544,-99999.0,'11111222,11111222,99999999' 
TABS,ioos:station:wmo:42046:1,2005-05-04T10:30:00Z,27.8903,-94.0367,2.0,316.7928879,9.49401917,-99999.0,'11133222,11111222,99999999' 
TABS,ioos:station:wmo:42046:1,2005-05-04T11:00:00Z,27.8903,-94.0367,2.0,322.468399,7.616508386,-99999.0,'11133222,11111222,99999999' 
TABS,ioos:station:wmo:42046:1,2005-05-04T11:30:00Z,27.8903,-94.0367,2.0,330.241001,9.871924838,-99999.0,'11133222,11111222,99999999' 
TABS,ioos:station:wmo:42046:1,2005-05-04T12:00:00Z,27.8903,-94.0367,2.0,323.0360076,10.92601483,-99999.0,'11111222,11111222,99999999' 
TABS,ioos:station:wmo:42046:1,2005-05-04T12:30:00Z,27.8903,-94.0367,2.0,324.8648369,13.744297,-99999.0,'11111222,11111222,99999999' 
TABS,ioos:station:wmo:42046:1,2005-05-04T13:00:00Z,27.8903,-94.0367,2.0,314.5536994,12.70002362,-99999.0,'11111222,11111222,99999999' 
TABS,ioos:station:wmo:42046:1,2005-05-04T13:30:00Z,27.8903,-94.0367,2.0,309.2075327,12.26019984,-99999.0,'11111222,11111222,99999999' 
TABS,ioos:station:wmo:42046:1,2005-05-04T14:00:00Z,27.8903,-94.0367,2.0,313.3795463,10.25007805,-99999.0,'11111222,11111222,99999999' 
TABS,ioos:station:wmo:42046:1,2005-05-04T14:30:00Z,27.8903,-94.0367,2.0,301.6363829,5.261938806,-99999.0,'11133222,11111222,99999999' 
TABS,ioos:station:wmo:42046:1,2005-05-04T15:00:00Z,27.8903,-94.0367,2.0,294.6194745,4.872966242,-99999.0,'11133222,11111222,99999999' 
TABS,ioos:station:wmo:42046:1,2005-05-04T15:30:00Z,27.8903,-94.0367,2.0,279.5440606,5.790138168,-99999.0,'11133222,11111222,99999999' 
TABS,ioos:station:wmo:42046:1,2005-05-04T16:00:00Z,27.8903,-94.0367,2.0,262.4661522,5.568060704,-99999.0,'11133222,11111222,99999999' 